MAC437 GMMN-LTFJ

Flight info

Callsign MAC437
Flight time N/A
Altitude 36000
Route SADIC UR975 FES UG850 BERUM DCT GONZA N860 RESTU DCT ALT DCT SUMMO DCT MITOS DCT BRUNO DCT RUXET DCT IZA DCT TUKRO DCT ASMOT DCT PTC DCT MHN DCT MORSS DCT BAVON DCT ORKUM DCT ELSAG DCT ALG DCT GARGA/N0427F370 DCT VAKSU DCT ENFAR DCT GOSTI DCT VELBA DCT ADORU UM19 IBODU
Aircraft A320/M-SDE3FGHIRWY/LB1

Departure

Time 2026-05-06 17:37
Airport Mohammed V International Airport (GMMN)

Arrival

Time N/A
Airport Istanbul Sabiha Gökçen International Airport (LTFJ)
Time Latitude Longitude Altitude Speed Heading
2026-05-06 17:01 33.36837 -7.58079 653 ft 0 kts 75°
2026-05-06 17:08 33.36837 -7.58080 653 ft 0 kts 75°
2026-05-06 17:21 33.36837 -7.58081 653 ft 0 kts 75°
2026-05-06 17:26 33.36835 -7.58088 653 ft 4 kts 75°
2026-05-06 17:27 33.36829 -7.58119 653 ft 4 kts 75°
2026-05-06 17:27 33.36821 -7.58149 656 ft 4 kts 69°
2026-05-06 17:27 33.36814 -7.58170 654 ft 0 kts 67°
2026-05-06 17:30 33.36824 -7.58169 653 ft 4 kts
2026-05-06 17:31 33.36874 -7.58174 653 ft 9 kts 347°
2026-05-06 17:31 33.36933 -7.58197 653 ft 9 kts 327°
2026-05-06 17:31 33.36935 -7.58274 654 ft 12 kts 255°
2026-05-06 17:31 33.36912 -7.58379 653 ft 14 kts 254°
2026-05-06 17:32 33.36859 -7.58462 653 ft 13 kts 189°
2026-05-06 17:32 33.36773 -7.58437 653 ft 12 kts 164°
2026-05-06 17:32 33.36697 -7.58411 654 ft 11 kts 164°
2026-05-06 17:32 33.36623 -7.58385 655 ft 13 kts 164°
2026-05-06 17:33 33.36527 -7.58352 653 ft 16 kts 164°
2026-05-06 17:33 33.36410 -7.58312 653 ft 19 kts 163°
2026-05-06 17:33 33.36289 -7.58271 655 ft 17 kts 164°
2026-05-06 17:33 33.36184 -7.58234 652 ft 15 kts 163°
2026-05-06 17:34 33.36054 -7.58191 652 ft 20 kts 164°
2026-05-06 17:34 33.35925 -7.58146 652 ft 18 kts 163°
2026-05-06 17:34 33.35811 -7.58107 654 ft 16 kts 164°
2026-05-06 17:34 33.35711 -7.58073 652 ft 14 kts 163°
2026-05-06 17:35 33.35624 -7.58044 652 ft 12 kts 169°
2026-05-06 17:35 33.35571 -7.58094 652 ft 10 kts 248°
2026-05-06 17:35 33.35551 -7.58175 651 ft 10 kts 254°
2026-05-06 17:36 33.35535 -7.58365 646 ft 13 kts 319°
2026-05-06 17:36 33.35659 -7.58412 646 ft 37 kts 343°
2026-05-06 17:36 33.36108 -7.58568 648 ft 95 kts 344°
2026-05-06 17:36 33.36909 -7.58843 653 ft 142 kts 344°
2026-05-06 17:37 33.37947 -7.59211 909 ft 158 kts 345°
2026-05-06 17:37 33.38997 -7.59557 1514 ft 156 kts 346°
2026-05-06 17:37 33.40049 -7.59894 2090 ft 157 kts 347°
2026-05-06 17:37 33.41124 -7.60086 2626 ft 156 kts 358°
2026-05-06 17:38 33.42214 -7.60022 3140 ft 158 kts
2026-05-06 17:38 33.43283 -7.59708 3568 ft 160 kts 18°
2026-05-06 17:38 33.44313 -7.59140 3927 ft 171 kts 29°
2026-05-06 17:38 33.45331 -7.58236 4076 ft 195 kts 42°
2026-05-06 17:39 33.46274 -7.56943 4226 ft 218 kts 49°
2026-05-06 17:39 33.47283 -7.55468 4397 ft 241 kts 49°
2026-05-06 17:39 33.48373 -7.53882 4916 ft 250 kts 50°
2026-05-06 17:39 33.49517 -7.52215 5255 ft 270 kts 50°
2026-05-06 17:40 33.50737 -7.50437 5756 ft 281 kts 49°
2026-05-06 17:40 33.51998 -7.48596 6401 ft 288 kts 50°
2026-05-06 17:40 33.53280 -7.46724 7060 ft 293 kts 50°
2026-05-06 17:40 33.54578 -7.44828 7756 ft 296 kts 50°
2026-05-06 17:41 33.55835 -7.42848 8426 ft 301 kts 59°
2026-05-06 17:41 33.56699 -7.40544 9119 ft 305 kts 75°
2026-05-06 17:41 33.57145 -7.38077 9777 ft 309 kts 80°
2026-05-06 17:41 33.57566 -7.35518 10199 ft 322 kts 79°
2026-05-06 17:42 33.58018 -7.32794 10332 ft 344 kts 79°
2026-05-06 17:42 33.58498 -7.29913 10659 ft 358 kts 79°
2026-05-06 17:42 33.58988 -7.26968 11221 ft 363 kts 79°
2026-05-06 17:42 33.59486 -7.23975 11824 ft 367 kts 79°
2026-05-06 17:43 33.59988 -7.20964 12450 ft 370 kts 80°
2026-05-06 17:43 33.60495 -7.17920 13062 ft 374 kts 80°
2026-05-06 17:43 33.61005 -7.14846 13666 ft 377 kts 80°
2026-05-06 17:43 33.61606 -7.11766 14178 ft 382 kts 70°
2026-05-06 17:44 33.62676 -7.08830 14698 ft 386 kts 65°
2026-05-06 17:44 33.63838 -7.05908 15218 ft 390 kts 65°
2026-05-06 17:44 33.65012 -7.02960 15732 ft 393 kts 65°
2026-05-06 17:44 33.66196 -6.99979 16253 ft 396 kts 65°
2026-05-06 17:45 33.67369 -6.97015 16756 ft 400 kts 65°
2026-05-06 17:45 33.68519 -6.93970 17245 ft 403 kts 71°
2026-05-06 17:45 33.68804 -6.92880 17401 ft 404 kts 77°
2026-05-06 17:46 33.68827 -6.92768 17417 ft 404 kts 78°
2026-05-06 17:46 33.68987 -6.91848 17507 ft 402 kts 83°
2026-05-06 17:46 33.69096 -6.88303 17383 ft 413 kts 90°
2026-05-06 17:46 33.69242 -6.84878 18217 ft 411 kts 86°
2026-05-06 17:47 33.69537 -6.81454 18689 ft 414 kts 84°
2026-05-06 17:47 33.69900 -6.78015 19113 ft 417 kts 84°
2026-05-06 17:47 33.70266 -6.74549 19532 ft 420 kts 84°
2026-05-06 17:47 33.70603 -6.71048 19943 ft 424 kts 85°
2026-05-06 17:48 33.70907 -6.67516 20389 ft 427 kts 86°
2026-05-06 17:48 33.71183 -6.63952 20823 ft 430 kts 86°
2026-05-06 17:48 33.71443 -6.60362 21246 ft 433 kts 87°
2026-05-06 17:48 33.71697 -6.56734 21662 ft 437 kts 87°
2026-05-06 17:49 33.71953 -6.53090 22076 ft 440 kts 87°
2026-05-06 17:49 33.72216 -6.49423 22490 ft 443 kts 87°
2026-05-06 17:49 33.72484 -6.45720 22888 ft 446 kts 87°
2026-05-06 17:49 33.72756 -6.41990 23265 ft 450 kts 87°
2026-05-06 17:50 33.73031 -6.38228 23618 ft 453 kts 87°
2026-05-06 17:50 33.73306 -6.34499 23933 ft 456 kts 86°
2026-05-06 17:50 33.73781 -6.30719 24239 ft 460 kts 81°
2026-05-06 17:50 33.74360 -6.26922 24543 ft 462 kts 81°
2026-05-06 17:51 33.74942 -6.23117 24842 ft 465 kts 81°
2026-05-06 17:51 33.75526 -6.19281 25131 ft 468 kts 81°
2026-05-06 17:51 33.76112 -6.15421 25408 ft 470 kts 81°
2026-05-06 17:51 33.76697 -6.11545 25689 ft 473 kts 81°
2026-05-06 17:52 33.77285 -6.07640 25961 ft 476 kts 81°
2026-05-06 17:52 33.77874 -6.03718 26219 ft 478 kts 82°
2026-05-06 17:52 33.78465 -5.99773 26504 ft 481 kts 81°
2026-05-06 17:52 33.79054 -5.95814 26771 ft 483 kts 82°
2026-05-06 17:53 33.79631 -5.91921 27005 ft 486 kts 82°
2026-05-06 17:53 33.80223 -5.87915 27257 ft 488 kts 82°
2026-05-06 17:53 33.80818 -5.83885 27519 ft 491 kts 82°
2026-05-06 17:53 33.81417 -5.79829 27781 ft 493 kts 82°
2026-05-06 17:54 33.82017 -5.75759 28024 ft 496 kts 82°
2026-05-06 17:54 33.82619 -5.71672 28273 ft 498 kts 82°
2026-05-06 17:54 33.83223 -5.67562 28508 ft 500 kts 82°
2026-05-06 17:54 33.83821 -5.63489 28719 ft 502 kts 82°
2026-05-06 17:55 33.84427 -5.59346 28954 ft 505 kts 82°
2026-05-06 17:55 33.85036 -5.55176 29175 ft 507 kts 82°
2026-05-06 17:55 33.85645 -5.50994 29385 ft 509 kts 82°
2026-05-06 17:55 33.86256 -5.46786 29586 ft 511 kts 82°
2026-05-06 17:56 33.86773 -5.43210 29766 ft 513 kts 82°
2026-05-06 17:56 33.87385 -5.38974 29968 ft 515 kts 82°
2026-05-06 17:56 33.87998 -5.34725 30206 ft 515 kts 82°
2026-05-06 17:56 33.88607 -5.30469 30433 ft 516 kts 83°
2026-05-06 17:57 33.89217 -5.26203 30636 ft 518 kts 83°
2026-05-06 17:57 33.89829 -5.21921 30835 ft 520 kts 83°
2026-05-06 17:57 33.90442 -5.17630 31004 ft 521 kts 83°
2026-05-06 17:57 33.91057 -5.13324 31186 ft 523 kts 83°
2026-05-06 17:58 33.91846 -5.09037 31369 ft 527 kts 74°
2026-05-06 17:58 33.93167 -5.04912 31544 ft 530 kts 64°
2026-05-06 17:58 33.95015 -5.01067 31712 ft 530 kts 53°
2026-05-06 17:58 33.97335 -4.97636 31873 ft 529 kts 42°
2026-05-06 17:59 34.00059 -4.94691 32045 ft 524 kts 32°
2026-05-06 17:59 34.02977 -4.92042 32217 ft 526 kts 32°
2026-05-06 17:59 34.05901 -4.89384 32407 ft 527 kts 32°
2026-05-06 17:59 34.08827 -4.86716 32588 ft 528 kts 32°
2026-05-06 18:00 34.11721 -4.84071 32771 ft 530 kts 32°
2026-05-06 18:00 34.14657 -4.81383 32949 ft 531 kts 32°
2026-05-06 18:00 34.17606 -4.78682 33124 ft 532 kts 32°
2026-05-06 18:00 34.20558 -4.75975 33269 ft 534 kts 32°
2026-05-06 18:01 34.23528 -4.73246 33406 ft 537 kts 32°
2026-05-06 18:01 34.26509 -4.70504 33544 ft 539 kts 32°
2026-05-06 18:01 34.29497 -4.67756 33695 ft 541 kts 32°
2026-05-06 18:01 34.32497 -4.64997 33866 ft 542 kts 32°
2026-05-06 18:02 34.38469 -4.59486 33918 ft 538 kts 32°
2026-05-06 18:02 34.44395 -4.53989 33917 ft 536 kts 32°
2026-05-06 18:03 34.50292 -4.48485 33922 ft 534 kts 32°
2026-05-06 18:03 34.56163 -4.42992 33914 ft 533 kts 32°
2026-05-06 18:04 34.62030 -4.37504 33933 ft 532 kts 33°
2026-05-06 18:04 34.67882 -4.32012 33939 ft 531 kts 33°
2026-05-06 18:05 34.72736 -4.27445 33942 ft 531 kts 33°
2026-05-06 18:05 34.79503 -4.21072 33949 ft 528 kts 33°
2026-05-06 18:06 34.85316 -4.15592 33954 ft 527 kts 33°
2026-05-06 18:06 34.90164 -4.11013 33947 ft 526 kts 33°
2026-05-06 18:07 34.95898 -4.05585 33947 ft 524 kts 33°
2026-05-06 18:07 35.01647 -4.00135 33949 ft 523 kts 33°
2026-05-06 18:08 35.07379 -3.94695 33945 ft 521 kts 33°
2026-05-06 18:08 35.13089 -3.89273 33951 ft 519 kts 34°
2026-05-06 18:09 35.18779 -3.83843 33952 ft 518 kts 34°
2026-05-06 18:09 35.24466 -3.78481 33952 ft 516 kts 33°
2026-05-06 18:10 35.30194 -3.73218 33946 ft 514 kts 33°
2026-05-06 18:10 35.35870 -3.68013 33945 ft 512 kts 33°
2026-05-06 18:11 35.41541 -3.62755 33938 ft 511 kts 33°
2026-05-06 18:11 35.47185 -3.57484 33926 ft 509 kts 33°
2026-05-06 18:12 35.52818 -3.52225 33922 ft 508 kts 33°
2026-05-06 18:12 35.58438 -3.46970 33924 ft 508 kts 33°
2026-05-06 18:13 35.64054 -3.41719 33921 ft 507 kts 33°
2026-05-06 18:13 35.69664 -3.36454 33917 ft 506 kts 34°
2026-05-06 18:14 35.75215 -3.31238 33914 ft 505 kts 34°
2026-05-06 18:14 35.80793 -3.25986 33912 ft 504 kts 34°
2026-05-06 18:15 35.86361 -3.20721 33907 ft 504 kts 34°
2026-05-06 18:15 35.91892 -3.15398 33909 ft 504 kts 35°
2026-05-06 18:16 35.97395 -3.10058 33909 ft 503 kts 35°
2026-05-06 18:16 36.02905 -3.04720 33908 ft 503 kts 35°
2026-05-06 18:17 36.08382 -2.99424 33910 ft 503 kts 35°
2026-05-06 18:17 36.13881 -2.94097 33904 ft 502 kts 35°
2026-05-06 18:18 36.19375 -2.88761 33906 ft 501 kts 35°
2026-05-06 18:18 36.24879 -2.83450 33907 ft 501 kts 34°
2026-05-06 18:19 36.30402 -2.78205 33907 ft 500 kts 34°
2026-05-06 18:19 36.35924 -2.72951 33907 ft 500 kts 34°
2026-05-06 18:20 36.41391 -2.67707 33908 ft 500 kts 35°
2026-05-06 18:20 36.46890 -2.62413 33909 ft 500 kts 35°
2026-05-06 18:21 36.52352 -2.57050 33910 ft 500 kts 36°
2026-05-06 18:21 36.57759 -2.51618 33921 ft 500 kts 36°
2026-05-06 18:22 36.63154 -2.46183 33928 ft 499 kts 36°
2026-05-06 18:22 36.68566 -2.40759 33932 ft 499 kts 36°
2026-05-06 18:23 36.73970 -2.35354 33936 ft 498 kts 36°
2026-05-06 18:23 36.79325 -2.29973 33939 ft 497 kts 36°
2026-05-06 18:24 36.84889 -2.24912 33935 ft 492 kts 25°
2026-05-06 18:24 36.90928 -2.20936 33931 ft 490 kts 24°
2026-05-06 18:25 36.96953 -2.16932 33929 ft 490 kts 24°
2026-05-06 18:25 37.02972 -2.12907 33928 ft 490 kts 24°
2026-05-06 18:26 37.08991 -2.08889 33923 ft 490 kts 24°
2026-05-06 18:26 37.14967 -2.04906 33926 ft 490 kts 24°
2026-05-06 18:27 37.20981 -2.00889 33929 ft 490 kts 24°
2026-05-06 18:27 37.26996 -1.96886 33929 ft 489 kts 23°
2026-05-06 18:28 37.33052 -1.93000 33932 ft 489 kts 22°